Stations météo

Publicité
Ouessant, France (7100): Température de l'air & dewpoint: 31.03.2020 16:00:00 - 06.04.2020 16:00:00 (CEST)Ouessant, France (7100): Vitesse du vent & gusts: 31.03.2020 16:00:00 - 06.04.2020 16:00:00 (CEST)Ouessant, France (7100): Direction du vent: 31.03.2020 16:00:00 - 06.04.2020 16:00:00 (CEST)Ouessant, France (7100): reduced air pressure: 31.03.2020 16:00:00 - 06.04.2020 16:00:00 (CEST)Ouessant, France (7100): visibility: 31.03.2020 16:00:00 - 06.04.2020 16:00:00 (CEST)Ouessant, France (7100): Quantités de précipitations: 31.03.2020 16:00:00 - 06.04.2020 16:00:00 (CEST)
Date & Time tt [°C] td [°C] ff [km/h] ff [knt] fx [km/h] fx [knt] dd ppp [hPa] vv [km] rr [mm]
06.04.2020 16:00:00 13,6 10,8 16 9 23 12 WNW 1022,2 - 0,0
06.04.2020 15:00:00 14,0 10,4 14 7 26 14 NW 1021,4 - 0,0
06.04.2020 14:00:00 13,9 11,9 17 9 25 13 WNW 1020,6 10 0,0
06.04.2020 13:00:00 13,1 11,5 19 10 32 17 WNW 1019,8 - 0,0
06.04.2020 12:00:00 12,4 11,8 24 13 32 17 W 1018,9 - 0,0
06.04.2020 11:00:00 12,5 12,3 21 11 33 18 WSW 1017,9 8 0,0
06.04.2020 10:00:00 11,7 11,7 23 12 30 16 WSW 1016,8 - 0,0
06.04.2020 09:00:00 10,9 10,9 18 10 29 16 WSW 1015,5 - 0,0
06.04.2020 08:00:00 10,0 10,0 19 10 27 14 WSW 1014,3 8 0,0
06.04.2020 07:00:00 9,9 9,9 20 11 29 16 WSW 1013,3 - 0,0
06.04.2020 06:00:00 10,5 10,5 20 11 31 17 WSW 1012,6 - 0,0
06.04.2020 05:00:00 10,2 10,2 20 11 31 17 SW 1011,8 - 0,0
06.04.2020 04:00:00 10,3 10,3 25 13 37 20 WSW 1011,1 - 0,0
06.04.2020 03:00:00 10,7 10,7 24 13 36 20 SW 1010,5 - 0,0
06.04.2020 02:00:00 10,7 10,7 23 12 39 21 WSW 1009,7 8 0,0
06.04.2020 01:00:00 10,6 10,6 29 15 56 30 W 1009,0 - 0,6
06.04.2020 00:00:00 11,8 11,8 40 21 63 34 S 1007,6 - 0,0
05.04.2020 23:00:00 12,4 12,4 47 26 69 38 SSW 1007,5 6 1,2
05.04.2020 22:00:00 12,2 12,2 42 23 69 38 S 1007,0 - 0,0
05.04.2020 21:00:00 12,2 11,9 40 22 66 36 S 1006,4 - 0,8
05.04.2020 20:00:00 12,3 11,5 38 20 58 31 S 1006,1 - 0,0
05.04.2020 19:00:00 12,1 11,2 32 18 64 34 SSE 1005,8 - 0,2
05.04.2020 18:00:00 12,5 11,1 29 16 60 33 SSE 1005,7 - 0,0
05.04.2020 17:00:00 13,0 11,4 28 15 68 37 SSE 1006,1 10 0,0
05.04.2020 16:00:00 12,9 11,1 36 19 85 46 SSE 1006,2 - 0,0
05.04.2020 15:00:00 13,9 11,4 50 27 78 42 SE 1006,3 - 0,0
05.04.2020 14:00:00 13,9 11,1 43 23 77 41 SE 1006,7 10 0,0
05.04.2020 13:00:00 14,4 11,4 42 23 76 41 SE 1006,9 - 0,0
05.04.2020 12:00:00 14,3 11,3 39 21 - - SE 1007,4 - 0,0
05.04.2020 11:00:00 13,6 11,1 36 20 69 37 SSE 1007,2 10 0,0
05.04.2020 10:00:00 12,6 10,5 37 20 69 38 SSE 1007,0 - 0,0
05.04.2020 09:00:00 12,6 10,1 40 21 73 40 SSE 1006,9 - 0,0
05.04.2020 08:00:00 12,3 9,5 48 26 68 37 SE 1006,6 20 0,0
05.04.2020 07:00:00 12,2 8,7 48 26 91 49 SE 1006,3 - 0,0
05.04.2020 06:00:00 12,4 7,9 51 28 76 41 SE 1006,7 - 0,0
05.04.2020 05:00:00 12,6 7,5 54 29 79 42 SE 1006,9 10 0,0
05.04.2020 04:00:00 11,5 7,6 47 26 65 35 SE 1007,8 - 0,0
05.04.2020 03:00:00 11,4 6,9 44 24 - - SE 1009,1 - 0,0
05.04.2020 02:00:00 11,4 7,1 - - - - - 1010,1 - 0,0
05.04.2020 01:00:00 11,2 6,7 42 23 59 32 SE 1010,6 - 0,0
05.04.2020 00:00:00 10,8 6,9 38 20 52 28 SE 1011,3 - 0,0
04.04.2020 23:00:00 11,0 6,7 35 19 52 28 SE 1012,3 25 0,0
04.04.2020 22:00:00 11,5 6,4 39 21 60 32 SE 1012,2 - 0,0
04.04.2020 21:00:00 11,6 6,5 39 21 76 41 SE 1012,1 - 0,0
04.04.2020 20:00:00 12,5 5,6 40 22 76 41 SSE 1012,2 - 0,0
04.04.2020 19:00:00 12,8 5,9 37 20 70 38 SSE 1012,6 - 0,0
04.04.2020 18:00:00 13,2 6,3 38 20 67 36 SSE 1012,7 - 0,0
04.04.2020 17:00:00 13,4 5,5 38 21 73 40 SSE 1013,5 20 0,0
04.04.2020 16:00:00 13,6 5,7 41 22 - - SSE 1014,1 - 0,0
04.04.2020 15:00:00 13,5 7,3 37 20 74 40 SSE 1015,2 - 0,0
04.04.2020 14:00:00 13,4 7,8 40 22 73 39 SE 1015,4 20 0,0
04.04.2020 13:00:00 13,0 8,1 40 22 74 40 SSE 1016,3 - 0,0
04.04.2020 12:00:00 12,6 8,3 38 21 67 36 SE 1016,5 - 0,0
04.04.2020 11:00:00 11,6 7,7 36 20 60 33 SE 1016,4 20 0,0
04.04.2020 10:00:00 10,7 7,8 38 20 53 29 SE 1016,0 - 0,0
04.04.2020 09:00:00 9,1 6,5 37 20 52 28 SE 1016,1 - 0,0
04.04.2020 08:00:00 8,6 6,6 41 22 55 30 SE 1016,0 - 0,0
04.04.2020 07:00:00 8,2 6,7 37 20 49 26 SE 1016,3 - 0,0
04.04.2020 06:00:00 8,3 6,8 34 18 43 23 SE 1016,9 - 0,0
04.04.2020 05:00:00 8,3 6,9 26 14 37 20 SE 1017,4 - 0,0
04.04.2020 04:00:00 8,9 7,2 24 13 32 18 ESE 1018,1 - 0,0
04.04.2020 03:00:00 9,0 7,3 17 9 21 11 ESE 1018,5 - 0,0
04.04.2020 02:00:00 8,6 7,2 12 7 25 14 ESE 1019,2 25 0,0
04.04.2020 01:00:00 8,9 7,0 17 9 20 11 ESE 1019,5 - 0,0
04.04.2020 00:00:00 8,1 6,1 13 7 15 8 E 1019,6 - 0,0
03.04.2020 23:00:00 8,0 5,6 5 3 5 3 NE 1019,9 25 0,0
03.04.2020 22:00:00 7,8 4,9 4 2 6 3 W 1019,7 - 0,0
03.04.2020 21:00:00 9,0 5,0 5 3 8 5 WSW 1019,4 - 0,0
03.04.2020 20:00:00 11,2 6,1 7 4 16 9 WNW 1019,5 25 0,0
03.04.2020 19:00:00 11,8 6,3 12 6 17 9 SW 1019,7 - 0,0
03.04.2020 18:00:00 11,2 6,1 13 7 21 12 WNW 1019,9 - 0,0
03.04.2020 17:00:00 11,7 6,4 16 9 23 13 WNW 1020,1 - 0,0
03.04.2020 16:00:00 11,8 7,9 14 8 - - NW 1020,5 - 0,0
03.04.2020 15:00:00 10,8 7,5 16 9 22 12 WNW 1020,9 - 0,0
03.04.2020 14:00:00 11,2 6,9 16 9 24 13 WNW 1020,9 - 0,0
03.04.2020 13:00:00 11,4 7,9 16 8 25 14 W 1021,1 - 0,0
03.04.2020 12:00:00 10,5 7,6 16 9 27 15 W 1021,1 - 0,0
03.04.2020 11:00:00 11,1 8,0 19 10 27 15 W 1020,9 20 0,0
03.04.2020 10:00:00 10,2 7,6 19 10 28 15 WNW 1020,6 - 0,0
03.04.2020 09:00:00 8,6 6,9 20 11 26 14 WNW 1020,5 - 0,0
03.04.2020 08:00:00 7,4 5,7 20 11 28 15 WNW 1020,3 25 0,0
03.04.2020 07:00:00 7,7 5,7 19 10 29 16 NW 1020,5 - 0,0
03.04.2020 06:00:00 7,8 5,6 20 11 29 16 NW 1020,2 - 0,0
03.04.2020 05:00:00 8,2 6,2 23 12 33 18 NW 1020,1 - 0,0
03.04.2020 04:00:00 8,4 6,5 24 13 34 18 NW 1020,2 - 0,0
03.04.2020 03:00:00 8,1 6,4 21 11 32 17 NW 1020,5 - 0,0
03.04.2020 02:00:00 8,5 6,5 21 11 29 16 NNW 1020,5 25 0,0
03.04.2020 01:00:00 8,6 6,7 20 11 32 17 NNW 1020,7 - 0,0
03.04.2020 00:00:00 8,7 7,0 22 12 34 18 NNW 1021,0 - 0,0
02.04.2020 23:00:00 8,9 7,2 25 14 36 19 NNW 1021,1 25 0,0
02.04.2020 22:00:00 8,8 6,9 27 15 39 21 NNW 1020,9 - 0,0
02.04.2020 21:00:00 9,0 7,3 28 15 - - NNW 1020,4 - 0,0
02.04.2020 20:00:00 9,8 7,7 27 15 43 23 NNW 1020,2 25 0,0
02.04.2020 19:00:00 10,3 7,5 29 16 44 24 NNW 1020,1 - 0,0
02.04.2020 18:00:00 10,8 7,3 28 15 41 22 NNW 1020,3 - 0,0
02.04.2020 17:00:00 11,4 5,5 29 15 38 21 NNW 1020,3 25 0,0
02.04.2020 16:00:00 11,6 6,1 22 12 33 18 NNW 1020,7 - 0,0
02.04.2020 15:00:00 11,5 5,8 19 10 30 16 N 1020,7 - 0,0
02.04.2020 14:00:00 10,1 4,2 17 9 34 18 N 1020,9 25 0,0
02.04.2020 13:00:00 9,4 3,6 24 13 37 20 N 1021,2 - 0,0
02.04.2020 12:00:00 9,0 2,5 26 14 41 22 N 1020,9 - 0,0
02.04.2020 11:00:00 8,6 1,5 26 14 37 20 N 1020,9 25 0,0
02.04.2020 10:00:00 8,2 0,4 23 13 40 22 N 1020,7 - 0,0
02.04.2020 09:00:00 8,2 1,8 28 15 42 23 N 1020,5 - 0,0
02.04.2020 08:00:00 8,3 2,1 27 15 - - N 1019,9 25 0,0
02.04.2020 07:00:00 8,3 2,3 29 15 42 23 N 1019,7 - 0,0
02.04.2020 06:00:00 8,4 2,8 28 15 42 23 N 1019,6 - 0,0
02.04.2020 05:00:00 8,3 2,1 19 10 32 17 N 1020,1 - 0,0
02.04.2020 04:00:00 8,2 1,1 19 10 39 21 NNE 1020,6 - 0,0
02.04.2020 03:00:00 8,0 2,2 25 13 39 21 NNE 1020,9 - 0,0
02.04.2020 02:00:00 8,1 3,4 28 15 - - NNE 1021,1 15 0,0
02.04.2020 01:00:00 8,1 3,5 25 14 45 25 NE 1021,6 - 0,0
02.04.2020 00:00:00 7,5 2,8 32 17 48 26 NE 1021,5 - 0,0
01.04.2020 23:00:00 7,5 3,0 32 17 49 27 NE 1021,4 15 0,0
01.04.2020 22:00:00 7,2 2,5 31 17 52 28 NE 1021,3 - 0,0
01.04.2020 21:00:00 7,1 2,4 31 17 49 26 NE 1020,8 - 0,0
01.04.2020 20:00:00 7,8 2,9 34 18 54 29 NE 1020,8 20 0,0
01.04.2020 19:00:00 8,3 3,9 39 21 55 30 NNE 1020,8 - 0,0
01.04.2020 18:00:00 9,3 4,3 35 19 53 29 NE 1020,9 - 0,0
01.04.2020 17:00:00 9,7 4,1 38 20 54 29 NE 1020,9 - 0,0
01.04.2020 16:00:00 10,5 4,4 35 19 54 29 NE 1020,9 - 0,0
01.04.2020 15:00:00 9,9 4,3 39 21 56 31 NE 1021,1 - 0,0
01.04.2020 14:00:00 10,7 4,6 38 20 55 30 NE 1021,5 - 0,0
01.04.2020 13:00:00 10,1 4,2 38 20 53 28 ENE 1021,9 - 0,0
01.04.2020 12:00:00 9,6 3,8 36 20 53 29 ENE 1022,4 - 0,0
01.04.2020 11:00:00 8,3 3,7 37 20 49 26 ENE 1022,8 8 0,0
01.04.2020 10:00:00 8,2 4,4 36 19 47 25 E 1022,9 - 0,0
01.04.2020 09:00:00 7,2 4,2 36 19 50 27 E 1022,8 - 0,0
01.04.2020 08:00:00 6,8 3,8 41 22 54 29 E 1022,5 15 0,0
01.04.2020 07:00:00 6,7 3,7 39 21 58 31 E 1022,7 - 0,0
01.04.2020 06:00:00 7,0 3,8 43 23 - - E 1022,6 - 0,0
01.04.2020 05:00:00 7,0 3,6 42 23 55 30 E 1023,0 20 0,0
01.04.2020 04:00:00 7,2 3,4 44 24 57 31 ENE 1023,4 - 0,0
01.04.2020 03:00:00 7,2 2,9 42 23 59 32 E 1024,0 - 0,0
01.04.2020 02:00:00 7,1 2,6 39 21 60 33 E 1024,4 20 0,0
01.04.2020 01:00:00 7,1 3,2 44 24 67 36 E 1024,7 - 0,0
01.04.2020 00:00:00 7,3 3,3 53 29 75 41 E 1025,1 - 0,0
31.03.2020 23:00:00 7,9 3,4 56 30 79 43 E 1024,8 20 0,0
31.03.2020 22:00:00 8,0 3,6 63 34 85 46 E 1024,6 - 0,0
31.03.2020 21:00:00 7,9 3,4 59 32 - - ENE 1024,2 - 0,0
31.03.2020 20:00:00 8,0 3,1 56 30 84 45 ENE 1023,9 20 0,0
31.03.2020 19:00:00 9,0 4,0 53 29 78 42 ENE 1023,9 - 0,0
31.03.2020 18:00:00 9,0 4,8 55 30 83 45 ENE 1024,3 - 0,0
31.03.2020 17:00:00 9,4 4,6 54 29 78 42 ENE 1024,2 20 0,0
31.03.2020 16:00:00 9,7 4,5 52 28 81 44 ENE 1024,6 - 0,0

tt = Température de l'air
td = dewpoint
ff = Vitesse du vent
fx = gusts
dd = Direction du vent
ppp = reduced air pressure
vv = visibility
rr = Quantités de précipitations

stations d'obs. à proximité